Flag for Germany Weather past 2 weeks in Merseburg, Saxony-Anhalt, Germany

Now
70 °F

Strong thunderstorms. Partly sunny.


Feels Like: 70 °F
Forecast: 63 / 75 °F
Wind: 7 mph from South

Location: Leipzig-Schkeuditz

Current Time: Jul 29, 2014 at 7:03:54 PM

Latest Report: Jul 29, 2014 at 6:20 PM


Visibility: N/A

Pressure: 29.74 "Hg

Humidity: 94%

Dew point: 68 °F

Location of MerseburgLocation

Historic Weather in Merseburg — Graph

°F

Merseburg temperature yesterday

Maximum temperature yesterday: 82 °F (at 4:20 PM)
Minimum temperature yesterday: 64 °F (at 12:20 AM)
Average temperature yesterday: 73 °F

Past Weeks' High & Low Weather Summary

 TemperatureHumidityPressure
High93 °F (Jul 20, 3:50 PM)100% (Jul 24, 8:50 PM)30.18 "Hg (Jul 24, 8:50 PM)
Low57 °F (Jul 16, 4:50 AM)22% (Jul 19, 6:50 PM)29.71 "Hg (Jul 29, 5:20 PM)
Average72 °F68%29.98 "Hg
* Reported Jul 14 5:20 PM — Jul 29 5:50 PM, Merseburg, Weather by CustomWeather, © 2014

Note: Actual official high and low records may vary slightly from our data, if they occured in-between our weather recording intervals... More about our weather records

Advertising

Merseburg weather history for previous 24 hours

 ConditionsComfort  
Time TempWeatherWind HumidityBarometerVisibility
5:50 PM
Jul 29
72 °FThunderstorms. Broken clouds.16 mph83%29.74 "HgN/A
5:20 PM77 °FThundershowers. Partly sunny.6 mph74%29.71 "HgN/A
4:50 PM77 °FBroken clouds.8 mph74%29.74 "HgN/A
4:20 PM77 °FSprinkles. Broken clouds.8 mph69%29.74 "HgN/A
3:50 PM79 °FBroken clouds.12 mph65%29.74 "HgN/A
3:20 PM79 °FPartly sunny.10 mph65%29.74 "HgN/A
2:50 PM79 °FBroken clouds.10 mph65%29.74 "HgN/A
2:20 PM79 °FBroken clouds.7 mph65%29.77 "HgN/A
1:50 PM79 °FBroken clouds.7 mph70%29.77 "HgN/A
1:20 PM79 °FBroken clouds.8 mph70%29.77 "HgN/A
12:50 PM77 °FBroken clouds.7 mph74%29.80 "Hg5 mi
12:20 PM75 °FBroken clouds.7 mph78%29.80 "Hg5 mi
11:50 AM75 °FBroken clouds.7 mph78%29.80 "Hg4 mi
11:20 AM73 °FBroken clouds.6 mph83%29.80 "Hg4 mi
10:50 AM72 °FPartly sunny.6 mph88%29.80 "Hg5 mi
10:20 AM73 °FPartly sunny.5 mph83%29.80 "Hg5 mi
9:50 AM72 °FPartly sunny.3 mph88%29.80 "Hg5 mi
9:20 AM70 °FPartly sunny.3 mph94%29.80 "HgN/A
8:50 AM68 °FBroken clouds.7 mph94%29.80 "HgN/A
8:20 AM68 °FBroken clouds.5 mph94%29.80 "HgN/A
7:50 AM68 °FSunny.3 mph94%29.80 "Hg10 mi
7:20 AM68 °FSunny.1 mph94%29.80 "Hg10 mi
6:50 AM66 °FPartly sunny.2 mph94%29.80 "HgN/A
6:20 AM66 °FPassing clouds.1 mph94%29.80 "HgN/A
5:50 AM66 °FClear.3 mph94%29.80 "Hg10 mi
5:20 AM66 °FClear.5 mph94%29.80 "Hg10 mi
4:50 AM66 °FClear.6 mph94%29.80 "Hg10 mi
4:20 AM66 °FClear.6 mph94%29.80 "Hg10 mi
3:50 AM66 °FClear.6 mph94%29.80 "Hg10 mi
3:20 AM66 °FClear.3 mph94%29.80 "Hg10 mi
2:50 AM66 °FClear.3 mph94%29.80 "Hg10 mi
2:20 AM66 °FClear.3 mph94%29.80 "Hg10 mi
1:50 AM66 °FSprinkles. Passing clouds.2 mph100%29.80 "HgN/A
1:20 AM66 °FRain showers. Partly cloudy.6 mph94%29.83 "HgN/A
12:50 AM66 °FThundershowers. Partly cloudy.3 mph94%29.86 "HgN/A
12:20 AM70 °FThundershowers. Passing clouds.17 mph78%29.86 "HgN/A
10:50 PM
Jul 28
73 °FClear.5 mph78%29.83 "Hg10 mi
10:20 PM73 °FClear.7 mph78%29.83 "Hg10 mi
9:50 PM73 °FSunny.6 mph78%29.86 "Hg10 mi
9:20 PM75 °FSunny.7 mph74%29.83 "Hg10 mi
8:50 PM77 °FPartly sunny.8 mph69%29.83 "HgN/A
8:20 PM77 °FPartly sunny.9 mph69%29.83 "HgN/A
7:50 PM79 °FPartly sunny.9 mph65%29.83 "HgN/A
7:20 PM81 °FPartly sunny.10 mph62%29.83 "HgN/A
Weather by CustomWeather, © 2014

See weather overviewHow to use our weather pages